[[{"header":{"parameterUnit":"m.s-1","parameterCategory":1,"la1":30.2991,"la2":30.254,"lo1":-89.0895,"lo2":-89.0444,"dy":0.0017,"dx":0.0017,"nx":28,"ny":28,"refTime":"2024-05-22T03:00:00:Z","depth":0,"parameterNumber":2,"parameterNumberName":"U-component_of_WINDS"},"data":[0,0,0,0,0,0,0,0,0,0,0,0,0,0,0,0,0,0,0,0,0,0,0,0,0,0,0,0,0,0,0,0,0,0,0,0,0,0,0,0,0,0,0,0,0,0,0,0,0,0,0,0,0,0,0,0,0,0,-2.1577,-2.1578,0,-2.1648,-2.1649,-2.165,-2.1638,-2.1636,-2.1635,-2.1634,-2.1704,-2.1707,-2.171,0,0,0,0,0,0,0,0,0,0,0,0,0,-2.1428,-2.1431,-2.1577,-2.1578,-2.1579,-2.1648,-2.1649,-2.165,-2.1638,-2.1636,-2.1635,-2.1633,-2.1703,-2.1707,-2.171,0,0,0,0,0,0,0,0,0,0,0,0,0,-2.1495,-2.1432,-2.1577,-2.1581,-2.1582,-2.1648,-2.1649,-2.165,-2.1638,-2.1636,-2.1634,-2.1633,-2.1702,-2.1706,-2.1711,-2.1776,0,0,-2.1725,-2.1727,0,0,0,0,0,0,0,0,-2.1491,-2.1501,-2.158,-2.1581,-2.1582,-2.1632,-2.1622,-2.1693,-2.1639,-2.1617,-2.1634,-2.1632,-2.1682,-2.1688,-2.1705,-2.178,-2.1783,-2.1725,-2.1728,-2.173,-2.1731,0,0,0,0,0,0,0,-2.1487,-2.1498,-2.1605,-2.1581,-2.1582,-2.1579,-2.1586,-2.1636,-2.1659,-2.1619,-2.1618,-2.1627,-2.1682,-2.1701,-2.1707,-2.1784,-2.1725,-2.1729,-2.1732,-2.1734,-2.1915,-2.1917,0,0,0,0,0,0,-2.1481,-2.1494,-2.1603,-2.1607,-2.1531,-2.1583,-2.1591,-2.1618,-2.1658,-2.1662,-2.1628,-2.1626,-2.1694,-2.1701,-2.1709,-2.1788,-2.173,-2.1734,-2.1737,-2.1913,-2.1916,-2.1918,0,0,0,0,0,0,-2.1478,-2.1491,-2.16,-2.155,-2.1564,-2.1587,-2.1618,-2.162,-2.1639,-2.1665,-2.1669,-2.1643,-2.1693,-2.1703,-2.176,-2.179,-2.1736,-2.174,-2.1911,-2.1914,-2.1917,-2.1946,0,0,0,0,0,0,-2.1474,-2.149,-2.1516,-2.1551,-2.1567,-2.165,-2.1619,-2.1623,-2.1647,-2.1645,-2.1681,-2.1685,-2.1692,-2.1753,-2.1764,-2.1795,-2.1744,-2.1908,-2.1912,-2.1916,-2.1943,-2.195,-2.1957,0,0,0,0,0,-2.1469,-2.1521,-2.1517,-2.153,-2.1599,-2.1652,-2.1661,-2.1669,-2.165,-2.1675,-2.1692,-2.1683,-2.1785,-2.1759,-2.1772,-2.1805,-2.1906,-2.1911,-2.1915,-2.194,-2.1949,-2.1956,0,0,0,0,0,0,-2.1487,-2.1525,-2.1522,-2.1587,-2.1617,-2.165,-2.1682,-2.1678,-2.1713,-2.171,-2.1717,-2.1726,-2.1784,-2.18,-2.177,-2.187,-2.1843,-2.185,-2.1857,-2.1866,-2.1873,-2.1867,-2.1748,0,0,0,0,0,-2.1499,-2.1539,-2.157,-2.1625,-2.164,-2.1659,-2.1682,-2.1686,-2.1717,-2.1729,-2.175,-2.1779,-2.1818,-2.1843,-2.188,-2.1945,-2.1953,-2.1974,-2.1981,-2.1987,-2.1993,-2.2028,-2.2038,-2.1933,-2.1933,-2.1933,0,0,-2.1523,-2.1549,-2.1574,-2.1629,-2.1653,-2.1694,-2.1669,-2.1714,-2.1744,-2.1735,-2.1791,-2.1807,-2.184,-2.1902,-2.193,-2.1917,-2.2024,-2.1993,-2.1997,-2.2,-2.2034,-2.2044,-2.2053,-2.1936,-2.1936,-2.1935,0,0,-2.1589,-2.1613,-2.1661,-2.1685,-2.1721,-2.1734,-2.1745,-2.178,-2.179,-2.1846,-2.1841,-2.1876,-2.1943,-2.1967,-2.1987,-2.2063,-2.2056,-2.2074,-2.211,-2.2145,-2.2153,-2.216,-2.2187,-2.2196,-2.2081,-2.2081,-2.2081,0,-2.1614,-2.1677,-2.1686,-2.1731,-2.1755,-2.1751,-2.1799,-2.1821,-2.1867,-2.1884,-2.1869,-2.1952,-2.1974,-2.2042,-2.206,-2.2077,-2.209,-2.207,-2.2151,-2.2159,-2.2166,-2.2191,-2.2201,-2.2083,-2.2082,-2.2082,-2.2082,0,-2.1706,-2.175,-2.1784,-2.183,-2.1858,-2.1904,-2.192,-2.1947,-2.1949,-2.1962,-2.2019,-2.2045,-2.2088,-2.2104,-2.2106,-2.2171,-2.2162,-2.2149,-2.2122,-2.2178,-2.2201,-2.2211,-2.2086,-2.2085,-2.2084,-2.2084,0,0,-2.1785,-2.1836,-2.1848,-2.1869,-2.1908,-2.1941,-2.1988,-2.203,-2.2053,-2.2085,-2.2123,-2.218,-2.2168,-2.2192,-2.2196,-2.2227,-2.2284,-2.221,-2.2211,-2.2223,-2.2358,-2.2367,-2.2378,-2.228,-2.2282,-2.2284,-2.2355,0,-2.1854,-2.1936,-2.1946,-2.2019,-2.2059,-2.2055,-2.2095,-2.2123,-2.2137,-2.2173,-2.2188,-2.2228,-2.221,-2.2224,-2.2254,-2.2271,-2.2312,-2.2266,-2.2315,-2.2317,-2.2307,-2.2391,-2.2401,-2.2467,-2.2365,-2.2366,-2.2367,0,-2.1945,-2.1981,-2.2058,-2.2093,-2.211,-2.2146,-2.2185,-2.2219,-2.2251,-2.2259,-2.2286,-2.2286,-2.2333,-2.2305,-2.2369,-2.2338,-2.2359,-2.237,-2.2373,-2.2377,-2.2345,-2.2397,-2.2488,-2.2498,-2.2382,-2.2381,-2.238,0,-2.1994,-2.2061,-2.2116,-2.2134,-2.2176,-2.2201,-2.2219,-2.225,-2.2274,-2.2309,-2.2325,-2.2364,-2.2385,-2.2415,-2.2425,-2.2404,-2.2489,-2.2462,-2.2497,-2.2496,-2.2514,-2.2513,-2.2609,-2.2529,-2.2528,-2.2528,-2.2528,0,-2.207,-2.2117,-2.2139,-2.2173,-2.2226,-2.2236,-2.2288,-2.2305,-2.2332,-2.2368,-2.2367,-2.2401,-2.2413,-2.2449,-2.2458,-2.251,-2.2519,-2.2526,-2.2528,-2.2526,-2.2525,-2.254,-2.2535,-2.2531,-2.253,-2.253,-2.2529,0,-2.2133,-2.215,-2.221,-2.2244,-2.2254,-2.2292,-2.2321,-2.2353,-2.2367,-2.2413,-2.2424,-2.2446,-2.2488,-2.2502,-2.2553,-2.2559,-2.2619,-2.2617,-2.2608,-2.2609,-2.2642,-2.2639,-2.2751,-2.2766,-2.2676,-2.2677,-2.2677,0,-2.218,-2.2217,-2.2256,-2.2281,-2.23,-2.234,-2.2366,-2.2377,-2.2404,-2.2443,-2.247,-2.2513,-2.2547,-2.2614,-2.2634,-2.2673,-2.2671,-2.2708,-2.2677,-2.2674,-2.2671,-2.2669,-2.2672,-2.2713,-2.2714,-2.2715,-2.2716,0,-2.2262,-2.2269,-2.2306,-2.2346,-2.2377,-2.2409,-2.244,-2.246,-2.2476,-2.2506,-2.255,-2.2577,-2.2629,-2.2671,-2.271,-2.2728,-2.2725,-2.2726,-2.2736,-2.2734,-2.2728,-2.2731,-2.2624,-2.2723,-2.2722,-2.2722,-2.2721,-2.2721,-2.2319,-2.2351,-2.2383,-2.2425,-2.245,-2.2479,-2.2511,-2.2529,-2.2566,-2.261,-2.2615,-2.2662,-2.2692,-2.2746,-2.2766,-2.2802,-2.2791,-2.2806,-2.281,-2.2813,-2.2816,-2.2722,-2.2809,-2.2809,-2.2809,-2.2809,-2.2809,0,-2.24,-2.2421,-2.2459,-2.2503,-2.2536,-2.253,-2.2565,-2.2592,-2.2634,-2.2663,-2.2697,-2.2747,-2.2788,-2.2811,-2.2851,-2.2876,-2.2875,-2.2886,-2.2884,-2.2888,-2.2823,-2.281,-2.2886,-2.2886,-2.2886,-2.2886,-2.2886,-2.2886,-2.2446,-2.25,-2.2511,-2.2577,-2.2597,-2.2644,-2.2664,-2.2691,-2.2714,-2.2771,-2.2805,-2.282,-2.2846,-2.2889,-2.2925,-2.2931,-2.2946,-2.2958,-2.2962,-2.2901,-2.2893,-2.2885,-2.2873,-2.2961,-2.2961,-2.3024,-2.3025,-2.3025]},{"header":{"parameterUnit":"m.s-1","parameterCategory":1,"la1":30.2991,"la2":30.254,"lo1":-89.0895,"lo2":-89.0444,"dy":0.0017,"dx":0.0017,"nx":28,"ny":28,"refTime":"2024-05-22T03:00:00:Z","depth":0,"parameterNumber":3,"parameterNumberName":"V-component_of_WINDS"},"data":[0,0,0,0,0,0,0,0,0,0,0,0,0,0,0,0,0,0,0,0,0,0,0,0,0,0,0,0,0,0,0,0,0,0,0,0,0,0,0,0,0,0,0,0,0,0,0,0,0,0,0,0,0,0,0,0,0,0,3.9357,3.9357,0,3.9421,3.9422,3.9423,3.9413,3.9412,3.9411,3.941,3.9471,3.9473,3.9476,0,0,0,0,0,0,0,0,0,0,0,0,0,3.9219,3.9222,3.9357,3.9357,3.9358,3.9421,3.9422,3.9423,3.9414,3.9412,3.9411,3.941,3.947,3.9473,3.9476,0,0,0,0,0,0,0,0,0,0,0,0,0,3.9281,3.9223,3.9356,3.9361,3.9362,3.9421,3.9422,3.9423,3.9414,3.9412,3.9411,3.9409,3.9469,3.9472,3.9476,3.9532,0,0,3.9488,3.949,0,0,0,0,0,0,0,0,3.9277,3.9286,3.936,3.9361,3.9362,3.9408,3.9396,3.9459,3.9414,3.9394,3.941,3.9408,3.9451,3.9456,3.9471,3.9535,3.9538,3.9489,3.9491,3.9493,3.9494,0,0,0,0,0,0,0,3.9273,3.9283,3.9382,3.9361,3.9362,3.9358,3.9365,3.9408,3.943,3.9396,3.9395,3.9403,3.9451,3.9468,3.9473,3.9539,3.9488,3.9492,3.9494,3.9496,3.9651,3.9652,0,0,0,0,0,0,3.9268,3.9279,3.938,3.9384,3.9315,3.9362,3.937,3.9395,3.943,3.9434,3.9405,3.9403,3.9462,3.9468,3.9475,3.9542,3.9493,3.9496,3.9498,3.9649,3.9651,3.9653,0,0,0,0,0,0,3.9265,3.9277,3.9377,3.9332,3.9344,3.9366,3.9394,3.9397,3.9413,3.9437,3.944,3.9418,3.9461,3.9469,3.9518,3.9544,3.9498,3.9502,3.9647,3.965,3.9652,3.9677,0,0,0,0,0,0,3.9261,3.9276,3.9299,3.9332,3.9347,3.9422,3.9396,3.9399,3.9421,3.9419,3.945,3.9453,3.946,3.9513,3.9522,3.9548,3.9505,3.9645,3.9648,3.9651,3.9674,3.968,3.9686,0,0,0,0,0,3.9257,3.9303,3.93,3.9313,3.9376,3.9423,3.9431,3.9439,3.9423,3.9445,3.946,3.9452,3.954,3.9518,3.9528,3.9556,3.9643,3.9647,3.9651,3.9672,3.9679,3.9686,0,0,0,0,0,0,3.927,3.9307,3.9305,3.9363,3.9391,3.9422,3.945,3.9447,3.9478,3.9474,3.9482,3.9489,3.9538,3.9552,3.9527,3.9612,3.9589,3.9595,3.9601,3.9608,3.9614,3.9609,3.9508,0,0,0,0,0,3.928,3.9317,3.9347,3.9395,3.9409,3.9427,3.9448,3.9452,3.948,3.949,3.9509,3.9534,3.9567,3.9589,3.962,3.9677,3.9682,3.9701,3.9707,3.9711,3.9716,3.9746,3.9754,3.9666,3.9666,3.9666,0,0,3.93,3.9325,3.9348,3.9399,3.942,3.9456,3.9437,3.9476,3.9503,3.9496,3.9544,3.9558,3.9587,3.9639,3.9663,3.9652,3.9742,3.9716,3.972,3.9722,3.9751,3.9759,3.9766,3.9669,3.9668,3.9668,0,0,3.9356,3.9379,3.9422,3.9444,3.9478,3.949,3.95,3.9532,3.9542,3.959,3.9586,3.9616,3.9674,3.9694,3.9712,3.9776,3.9769,3.9786,3.9815,3.9844,3.9851,3.9857,3.9879,3.9887,3.9791,3.9791,3.9791,0,3.9376,3.9433,3.9444,3.9484,3.9506,3.9504,3.9546,3.9566,3.9608,3.9622,3.961,3.9681,3.97,3.9757,3.9773,3.9788,3.9798,3.9782,3.985,3.9856,3.9862,3.9882,3.9891,3.9793,3.9792,3.9792,3.9792,0,3.9456,3.9495,3.9526,3.9568,3.9593,3.9634,3.9649,3.9673,3.9675,3.9688,3.9736,3.976,3.9796,3.981,3.9812,3.9867,3.9859,3.9848,3.9825,3.9872,3.9891,3.9899,3.9795,3.9794,3.9794,3.9794,0,0,3.952,3.9569,3.958,3.9599,3.9636,3.9665,3.9706,3.9743,3.9763,3.9791,3.9824,3.9873,3.9863,3.9883,3.9887,3.9913,3.9961,3.9899,3.99,3.9908,4.0022,4.0029,4.0038,3.9957,3.9959,3.996,4.0019,0,3.9579,3.9653,3.9664,3.9727,3.9763,3.9762,3.9796,3.9822,3.9835,3.9865,3.9878,3.9913,3.9898,3.991,3.9935,3.995,3.9983,3.9946,3.9986,3.9987,3.9978,4.0048,4.0056,4.011,4.0027,4.0028,4.0029,0,3.9657,3.969,3.9758,3.979,3.9805,3.9836,3.9871,3.9901,3.9929,3.9937,3.996,3.9961,4.0001,3.9977,4.0031,4.0005,4.0022,4.0032,4.0034,4.0037,4.001,4.0051,4.0127,4.0135,4.0041,4.004,4.0039,0,3.9696,3.9757,3.9805,3.9821,3.986,3.9882,3.9899,3.9926,3.9948,3.9978,3.9991,4.0025,4.0043,4.0068,4.0077,4.0059,4.013,4.0107,4.0135,4.0135,4.0149,4.0148,4.0227,4.0163,4.0162,4.0162,4.0162,0,3.9759,3.98,3.9823,3.9853,3.9899,3.991,3.9954,3.997,3.9994,4.0025,4.0026,4.0055,4.0066,4.0096,4.0103,4.0146,4.0154,4.016,4.0161,4.0159,4.0159,4.017,4.0165,4.0164,4.0164,4.0164,4.0163,0,3.9809,3.9827,3.988,3.9913,3.9922,3.9954,3.9981,4.0009,4.0022,4.0062,4.0071,4.0091,4.0126,4.0139,4.0181,4.0186,4.0235,4.0234,4.0227,4.0226,4.0253,4.025,4.0342,4.0353,4.0282,4.0283,4.0283,0,3.9848,3.988,3.9918,3.994,3.9958,3.9993,4.0016,4.0028,4.0051,4.0086,4.0109,4.0145,4.0174,4.023,4.0247,4.0279,4.0278,4.0308,4.0282,4.0279,4.0276,4.0274,4.0277,4.0312,4.0312,4.0313,4.0314,0,3.9915,3.9922,3.9956,3.9993,4.002,4.0049,4.0077,4.0094,4.011,4.0136,4.0173,4.0196,4.0241,4.0275,4.0309,4.0324,4.0321,4.0322,4.033,4.0327,4.0321,4.0323,4.0238,4.0319,4.0319,4.0318,4.0318,4.0318,3.996,3.9988,4.0019,4.0056,4.0079,4.0105,4.0133,4.015,4.0182,4.022,4.0225,4.0265,4.0291,4.0336,4.0353,4.0383,4.0374,4.0386,4.0389,4.0391,4.0392,4.0318,4.0389,4.0389,4.0388,4.0388,4.0388,0,4.0025,4.0045,4.008,4.012,4.0149,4.0146,4.0177,4.02,4.0236,4.0262,4.0291,4.0334,4.0368,4.0388,4.0421,4.0441,4.044,4.0449,4.0447,4.045,4.0399,4.0388,4.0449,4.0449,4.0449,4.0449,4.0449,4.0449,4.0062,4.011,4.0121,4.0179,4.0198,4.0239,4.0256,4.028,4.0301,4.0349,4.0378,4.0391,4.0414,4.0449,4.048,4.0484,4.0496,4.0506,4.0509,4.046,4.0454,4.0448,4.0438,4.0508,4.0508,4.0558,4.0558,4.0559]}]]